| time (UTC) | temp C | wind direction | speed KPH | gust KPH | rain 1hr cm | rain 24hr cm | rain mn cm | humidity % | barometer mb |
| 20260831194159 | 15 | 9 | 0.0 | 0.0 | 0.00 | 0.81 | 0.43 | 85 | 1013.0 |
| 20260831193154 | 15 | 9 | 6.4 | 0.0 | 0.00 | 0.81 | 0.43 | 88 | 1012.7 |
| 20260831192138 | 14 | 355 | 17.7 | 29.0 | 0.15 | 0.81 | 0.43 | 90 | 1012.3 |
| 20260831191122 | 14 | 345 | 14.5 | 29.0 | 0.33 | 0.81 | 0.41 | 89 | 1012.1 |
| 20260831190051 | 15 | 0 | 0.0 | 6.4 | 0.41 | 0.74 | 0.33 | 89 | 1013.6 |
| 20260831185028 | 15 | 0 | 0.0 | 0.0 | 0.23 | 0.66 | 0.25 | 87 | 1013.9 |
| 20260831184002 | 15 | 0 | 0.0 | 1.6 | 0.10 | 0.64 | 0.23 | 87 | 1013.9 |
| 20260831182944 | 15 | 0 | 0.0 | 4.8 | 0.13 | 0.61 | 0.20 | 85 | 1013.8 |
| 20260831181954 | 15 | 0 | 0.0 | 3.2 | 0.00 | 0.58 | 0.15 | 85 | 1013.6 |
| 20260831180952 | 15 | 0 | 0.0 | 0.0 | 0.00 | 0.56 | 0.15 | 85 | 1013.5 |
| 20260831175932 | 15 | 0 | 0.0 | 0.0 | 0.15 | 0.56 | 0.15 | 82 | 1013.4 |
| 20260831174943 | 16 | 0 | 4.8 | 14.5 | 0.00 | 0.53 | 0.13 | 75 | 1013.2 |
| 20260831173938 | 16 | 0 | 6.4 | 17.7 | 0.00 | 0.51 | 0.10 | 73 | 1013.2 |
| 20260831172941 | 17 | 0 | 6.4 | 16.1 | 0.00 | 0.51 | 0.10 | 72 | 1013.0 |
| 20260831172000 | 17 | 0 | 6.4 | 17.7 | 0.00 | 0.51 | 0.10 | 73 | 1012.8 |
| 20260831165931 | 17 | 0 | 6.4 | 16.1 | 0.00 | 0.51 | 0.10 | 74 | 1012.7 |
| 20260831164900 | 17 | 0 | 9.7 | 20.9 | 0.00 | 0.51 | 0.10 | 72 | 1012.5 |
| 20260831163852 | 17 | 0 | 9.7 | 17.7 | 0.00 | 0.51 | 0.10 | 70 | 1012.3 |
| 20260831162911 | 17 | 0 | 11.3 | 20.9 | 0.00 | 0.51 | 0.10 | 70 | 1012.3 |
| 20260831161845 | 17 | 0 | 4.8 | 20.9 | 0.00 | 0.51 | 0.10 | 70 | 1012.2 |
| 20260831160851 | 17 | 0 | 6.4 | 20.9 | 0.00 | 0.51 | 0.10 | 69 | 1012.2 |
| 20260831154806 | 17 | 0 | 4.8 | 17.7 | 0.00 | 0.51 | 0.10 | 71 | 1012.1 |
| 20260831153748 | 16 | 255 | 1.6 | 14.5 | 0.00 | 0.51 | 0.10 | 71 | 1012.2 |
| 20260831152716 | 16 | 253 | 0.0 | 0.0 | 0.00 | 0.51 | 0.10 | 72 | 1012.2 |
| 20260831151706 | 16 | 252 | 0.0 | 12.9 | 0.00 | 0.51 | 0.10 | 72 | 1012.2 |
| 20260831150640 | 16 | 246 | 0.0 | 16.1 | 0.00 | 0.51 | 0.10 | 74 | 1012.1 |
| 20260831145625 | 16 | 238 | 0.0 | 0.0 | 0.00 | 0.51 | 0.10 | 74 | 1012.2 |
| 20260831144624 | 15 | 238 | 0.0 | 12.9 | 0.00 | 0.51 | 0.10 | 76 | 1012.1 |
| 20260831143600 | 15 | 209 | 0.0 | 0.0 | 0.00 | 0.51 | 0.10 | 76 | 1011.8 |
| 20260831141432 | 15 | 132 | 0.0 | 0.0 | 0.00 | 0.51 | 0.10 | 76 | 1010.7 |
| 20260831140434 | 15 | 132 | 0.0 | 0.0 | 0.00 | 0.51 | 0.10 | 77 | 1010.7 |
| 20260831135458 | 15 | 132 | 0.0 | 0.0 | 0.00 | 0.51 | 0.10 | 77 | 1010.6 |
| 20260831134449 | 15 | 132 | 0.0 | 0.0 | 0.00 | 0.51 | 0.10 | 78 | 1010.3 |
| 20260831133430 | 14 | 125 | 0.0 | 0.0 | 0.00 | 0.51 | 0.10 | 75 | 1010.0 |
| 20260831131332 | 15 | 98 | 0.0 | 0.0 | 0.00 | 0.51 | 0.10 | 74 | 1009.4 |
| 20260831130352 | 15 | 100 | 0.0 | 9.7 | 0.00 | 0.51 | 0.10 | 73 | 1009.2 |
| 20260831125353 | 14 | 50 | 0.0 | 0.0 | 0.00 | 0.51 | 0.10 | 76 | 1009.0 |
| 20260831123235 | 15 | 23 | 12.9 | 22.5 | 0.00 | 0.51 | 0.10 | 76 | 1008.7 |
| 20260831122242 | 14 | 49 | 14.5 | 24.1 | 0.00 | 0.51 | 0.10 | 76 | 1008.7 |
| 20260831121210 | 14 | 46 | 16.1 | 24.1 | 0.00 | 0.51 | 0.10 | 78 | 1008.6 |
| 20260831120141 | 14 | 49 | 16.1 | 22.5 | 0.00 | 0.51 | 0.10 | 78 | 1008.8 |
| 20260831115137 | 14 | 45 | 17.7 | 20.9 | 0.00 | 0.51 | 0.10 | 80 | 1008.8 |
| 20260831114111 | 13 | 22 | 12.9 | 17.7 | 0.00 | 0.51 | 0.10 | 81 | 1008.9 |
| 20260831113114 | 13 | 16 | 17.7 | 22.5 | 0.00 | 0.51 | 0.10 | 80 | 1008.9 |
| 20260831112050 | 14 | 38 | 17.7 | 25.7 | 0.00 | 0.51 | 0.10 | 80 | 1009.1 |
| 20260831105954 | 13 | 45 | 20.9 | 29.0 | 0.00 | 0.51 | 0.10 | 82 | 1009.6 |
| 20260831105013 | 13 | 44 | 11.3 | 29.0 | 0.00 | 0.51 | 0.10 | 87 | 1009.3 |
| 20260831104022 | 13 | 349 | 0.0 | 0.0 | 0.00 | 0.51 | 0.10 | 88 | 1010.9 |
| 20260831102948 | 13 | 349 | 0.0 | 0.0 | 0.00 | 0.51 | 0.10 | 87 | 1011.0 |
| 20260831100823 | 13 | 56 | 0.0 | 0.0 | 0.00 | 0.51 | 0.10 | 89 | 1011.3 |
| 20260831095803 | 13 | 107 | 0.0 | 0.0 | 0.00 | 0.51 | 0.10 | 88 | 1011.0 |
| 20260831094732 | 13 | 107 | 0.0 | 0.0 | 0.00 | 0.51 | 0.10 | 86 | 1010.9 |
| 20260831093715 | 13 | 107 | 0.0 | 0.0 | 0.00 | 0.51 | 0.10 | 87 | 1010.7 |
| 20260831091603 | 13 | 107 | 0.0 | 0.0 | 0.00 | 0.51 | 0.10 | 87 | 1010.7 |
| 20260831090601 | 13 | 107 | 0.0 | 0.0 | 0.00 | 0.51 | 0.10 | 86 | 1010.6 |
| 20260831085604 | 13 | 107 | 0.0 | 0.0 | 0.00 | 0.51 | 0.10 | 84 | 1010.4 |
| 20260831084624 | 13 | 107 | 0.0 | 0.0 | 0.00 | 0.51 | 0.10 | 83 | 1010.4 |
| 20260831082435 | 13 | 169 | 0.0 | 4.8 | 0.00 | 0.51 | 0.10 | 83 | 1010.8 |
| 20260831081447 | 14 | 166 | 4.8 | 0.0 | 0.00 | 0.51 | 0.10 | 80 | 1010.8 |
| 20260831080508 | 14 | 344 | 20.9 | 27.4 | 0.15 | 0.51 | 0.10 | 78 | 1010.5 |
| 20260831075500 | 15 | 348 | 16.1 | 29.0 | 5.71 | 0.46 | 0.05 | 72 | 1010.5 |
| 20260831074443 | 15 | 14 | 24.1 | 30.6 | 0.00 | 0.41 | 0.00 | 72 | 1010.1 |
| 20260831073452 | 16 | 347 | 24.1 | 30.6 | 0.00 | 0.41 | 0.00 | 71 | 1010.2 |
| 20260831070227 | 15 | 27 | 12.9 | 16.1 | 0.00 | 0.41 | 0.00 | 77 | 1009.5 |
| 20260831065219 | 15 | 27 | 16.1 | 20.9 | 0.00 | 0.41 | 0.00 | 74 | 1009.4 |
| 20260831064234 | 15 | 22 | 17.7 | 24.1 | 0.00 | 0.41 | 0.00 | 75 | 1009.4 |
| 20260831063256 | 15 | 19 | 20.9 | 24.1 | 0.00 | 0.41 | 0.00 | 75 | 1009.3 |
| 20260831062305 | 15 | 24 | 20.9 | 29.0 | 0.00 | 0.41 | 0.00 | 75 | 1009.1 |
| 20260831061316 | 15 | 38 | 20.9 | 29.0 | 0.00 | 0.41 | 0.00 | 75 | 1008.8 |
| 20260831060319 | 15 | 27 | 17.7 | 25.7 | 0.00 | 0.41 | 0.00 | 76 | 1008.9 |
| 20260831055337 | 15 | 30 | 22.5 | 30.6 | 0.00 | 0.41 | 0.41 | 75 | 1008.8 |
| 20260831054339 | 15 | 32 | 22.5 | 30.6 | 0.00 | 0.41 | 0.41 | 75 | 1008.9 |
| 20260831053333 | 15 | 30 | 17.7 | 24.1 | 0.00 | 0.41 | 0.41 | 77 | 1009.1 |
| 20260831052342 | 14 | 38 | 4.8 | 22.5 | 0.00 | 0.41 | 0.41 | 78 | 1009.3 |
| 20260831051353 | 14 | 132 | 0.0 | 0.0 | 0.00 | 0.41 | 0.41 | 80 | 1009.2 |
| 20260831045221 | 14 | 132 | 0.0 | 3.2 | 0.00 | 0.41 | 0.41 | 80 | 1009.4 |
| 20260831044233 | 14 | 136 | 0.0 | 0.0 | 0.00 | 0.41 | 0.41 | 80 | 1009.2 |
| 20260831043236 | 14 | 136 | 1.6 | 0.0 | 0.00 | 0.41 | 0.41 | 79 | 1009.4 |
| 20260831042225 | 15 | 44 | 11.3 | 19.3 | 0.00 | 0.41 | 0.41 | 79 | 1008.9 |
| 20260831041242 | 15 | 36 | 11.3 | 24.1 | 0.00 | 0.41 | 0.41 | 78 | 1008.9 |
| 20260831040225 | 15 | 24 | 17.7 | 24.1 | 0.00 | 0.41 | 0.41 | 76 | 1008.8 |
| 20260831034153 | 15 | 36 | 16.1 | 20.9 | 0.00 | 0.41 | 0.41 | 75 | 1008.5 |
| 20260831033132 | 15 | 44 | 16.1 | 20.9 | 0.00 | 0.41 | 0.41 | 77 | 1008.6 |
| 20260831030943 | 15 | 33 | 20.9 | 27.4 | 0.00 | 0.41 | 0.41 | 80 | 1008.4 |
| 20260831025958 | 15 | 16 | 20.9 | 27.4 | 0.00 | 0.41 | 0.41 | 80 | 1008.4 |
| 20260831025001 | 15 | 28 | 22.5 | 27.4 | 0.00 | 0.41 | 0.41 | 81 | 1008.2 |
| 20260831023940 | 15 | 25 | 22.5 | 30.6 | 0.00 | 0.41 | 0.41 | 83 | 1007.9 |
| 20260831022912 | 15 | 13 | 29.0 | 35.4 | 0.00 | 0.41 | 0.41 | 83 | 1008.1 |
| 20260831020814 | 15 | 5 | 24.1 | 29.0 | 0.00 | 0.41 | 0.41 | 82 | 1008.3 |
| 20260831015806 | 15 | 0 | 22.5 | 30.6 | 0.10 | 0.41 | 0.41 | 81 | 1008.1 |
| 20260831014758 | 15 | 346 | 17.7 | 35.4 | 0.33 | 0.41 | 0.41 | 83 | 1008.1 |
| 20260831013750 | 16 | 0 | 20.9 | 35.4 | 0.89 | 0.33 | 0.33 | 80 | 1008.0 |
| 20260831012750 | 18 | 271 | 4.8 | 11.3 | 0.15 | 0.23 | 0.23 | 73 | 1007.4 |
| 20260831011751 | 20 | 134 | 20.9 | 35.4 | 1.45 | 0.20 | 0.20 | 62 | 1005.8 |
| 20260831010800 | 24 | 150 | 0.0 | 25.7 | 0.00 | 0.00 | 0.00 | 38 | 1005.8 |
| 20260831005729 | 24 | 0 | 0.0 | 0.0 | 0.00 | 0.00 | 0.00 | 36 | 1005.5 |
| 20260831004705 | 24 | 0 | 0.0 | 0.0 | 0.00 | 0.00 | 0.00 | 35 | 1005.5 |
| 20260831003634 | 25 | 0 | 0.0 | 0.0 | 0.00 | 0.00 | 0.00 | 35 | 1005.6 |
| 20260831001526 | 25 | 0 | 0.0 | 12.9 | 0.00 | 0.00 | 0.00 | 34 | 1005.7 |
| 20260831000541 | 25 | 0 | 6.4 | 19.3 | 0.00 | 0.00 | 0.00 | 34 | 1005.7 |
| 20260830235528 | 24 | 0 | 1.6 | 17.7 | 0.00 | 0.00 | 0.00 | 36 | 1005.9 |
| 20260830234541 | 24 | 0 | 0.0 | 6.4 | 0.00 | 0.00 | 0.00 | 36 | 1006.0 |
| 20260830233512 | 25 | 0 | 0.0 | 11.3 | 0.00 | 0.00 | 0.00 | 35 | 1005.9 |
| 20260830232445 | 25 | 0 | 0.0 | 6.4 | 0.00 | 0.00 | 0.00 | 34 | 1005.8 |
| 20260830230340 | 25 | 0 | 6.4 | 24.1 | 0.00 | 0.00 | 0.00 | 32 | 1005.8 |
| 20260830225355 | 26 | 0 | 12.9 | 24.1 | 0.00 | 0.00 | 0.00 | 31 | 1006.0 |
| 20260830224343 | 25 | 0 | 17.7 | 30.6 | 0.00 | 0.00 | 0.00 | 31 | 1006.1 |
| 20260830222129 | 27 | 250 | 17.7 | 30.6 | 0.00 | 0.00 | 0.00 | 32 | 1005.7 |
| 20260830221149 | 27 | 251 | 17.7 | 30.6 | 0.00 | 0.00 | 0.00 | 30 | 1005.9 |
| 20260830220118 | 28 | 269 | 14.5 | 30.6 | 0.00 | 0.00 | 0.00 | 27 | 1005.8 |
| 20260830215056 | 28 | 256 | 22.5 | 37.0 | 0.00 | 0.00 | 0.00 | 26 | 1005.8 |
| 20260830214045 | 28 | 242 | 14.5 | 37.0 | 0.00 | 0.00 | 0.00 | 27 | 1005.9 |
| 20260830213033 | 28 | 224 | 11.3 | 25.7 | 0.00 | 0.00 | 0.00 | 27 | 1006.0 |
| 20260830212030 | 28 | 228 | 6.4 | 24.1 | 0.00 | 0.00 | 0.00 | 25 | 1006.0 |